CZ-6A DEB, 64644

Orbit data source: Space-Track

CZ-6A DEB, 64644 is space debris in LEO originally from a launch on Tue, 06 Aug 2024 UTC launched from the Taiyaun Space Center, China (TSC). Debris objects in space refer to the collection of defunct objects orbiting the Earth. Examples of debris include non-operational satellites, rocket bodies, and fragments generated from explosions, collisions, or faulty payload assembly.

Loading next visibility...
Identifier
64644, 2024-140AEJ
Orbit
LEO
Country
Flag of CNCN / PRC
Related business
Manufacturer
SAST
Mission
Spacecraft
Bus & Motor
Unknown
Mass
Unknown
Launch date (UTC)
2024-08-06 (2 years ago)
Launch vehicle
Unknown
Launch site
Taiyaun Space Center, China (TSC)
Object type
Payload
Rocket body
Debris
Shape & HBR
Unknown shape, 0.1 m
Radar Cross Section
Small (<0.1 m²)

Expand to show TLE details & history
Last TLE update: 2 days ago

TLE from 2 days ago
0 CZ-6A DEB
1 64644U 24140AEJ 26170.02807725  .00000073  00000-0  31454-4 0  9993
2 64644  89.0284 277.6425 0080208 195.1689 164.7091 14.11535099 89943
Epoch: 2026-06-19T00:40Z
TLE epoch observation values (Epoch: 2026-06-19T00:40:25.874Z)
Latitude
-0.00004°
Longitude
0.27175°
Altitude
913.163 km
Speed
7.367 km/s
True Right ascension
18h 30m 34s
True Declination
0° 00' 00"
Sunlit
Object was in full shadow at epoch
Visualization orbit readout
Latitude
Unknown
Longitude
Unknown
Altitude
Unknown
Speed
Unknown
Apparent Right ascension
Unknown
Apparent Declination
Unknown
Sunlit
N/A
Visualization observer readout
Local Sidereal Time
08:32:46
Azimuth
Unknown
Elevation
Unknown
Doppler factor
Unknown
Orbital elements
Apogee altitude
909.07 km
Perigee altitude
793.102 km
Semi-major axis
7,229.223 km
Eccentricity
0.00802
Inclination
89.0284°
RAAN
277.6425°
Arg. of periapsis
195.1689°
True anomaly
164.94917°
Mean anomaly
164.7091°
Eccentric anomaly
164.82936°
Mean motion
3.53106 °/min
Orbital period
101.95 mins
BSTAR
0.000031454
Loading maneuver chart data...
Computing Atmospheric mass density...
Loading historical data...
Loading historical data...
Loading historical data...
Loading historical data...
Loading historical data...
Loading historical data...
Loading historical data...

Documentation

Showing up to 5 results
|